When you browse on this site, cookies collect data to enhance your experience and personalize the content and advertising you see.
Visit our Privacy Policy to learn more. By continuing to use the site, you agree to this use of cookies and data.
  • In Hungary
  • List of Countries
  • For 7 days
  • Water Temperature
  • Weather Map
  • News
  • Weather Widgets
  • user-avatar
    Login

    Hourly Weather Batina

    Today, 2 June, Tuesday

    Time Temperature Precipitation Wind Pressure Humidity
    00:00 +20°C° 0 mm 1 mps 670 mmHg 74%
    01:00 +20°C° 0 mm 1 mps 670 mmHg 75%
    02:00 +19°C° 0 mm 1 mps 670 mmHg 76%
    03:00 +17°C° 0 mm 0 mps 670 mmHg 78%
    04:00 +18°C° 0 mm 0 mps 670 mmHg 75%
    05:00 +18°C° 0 mm 0 mps 670 mmHg 72%
    06:00 +19°C° 0 mm 0 mps 671 mmHg 70%
    07:00 +22°C° 0 mm 1 mps 671 mmHg 63%
    08:00 +23°C° 0 mm 2 mps 672 mmHg 57%
    09:00 +25°C° 0 mm 3 mps 672 mmHg 51%
    10:00 +26°C° 0 mm 4 mps 672 mmHg 46%
    11:00 +27°C° 0 mm 4 mps 672 mmHg 42%
    12:00 +28°C° 0 mm 5 mps 672 mmHg 37%
    13:00 +28°C° 0 mm 5 mps 672 mmHg 36%
    14:00 +28°C° 0 mm 5 mps 671 mmHg 35%
    15:00 +28°C° 0 mm 5 mps 671 mmHg 34%
    16:00 +27°C° 0 mm 5 mps 671 mmHg 37%
    17:00 +26°C° 0 mm 4 mps 670 mmHg 39%
    18:00 +25°C° 0 mm 4 mps 670 mmHg 42%
    19:00 +23°C° 0 mm 4 mps 670 mmHg 46%
    20:00 +22°C° 0 mm 3 mps 670 mmHg 50%
    21:00 +21°C° 0 mm 2 mps 671 mmHg 55%
    22:00 +20°C° 0.1 mm 2 mps 670 mmHg 58%
    23:00 +20°C° 0.1 mm 1 mps 670 mmHg 60%

    Tomorrow, 3 June, Wednesday

    Time Temperature Precipitation Wind Pressure Humidity
    00:00 +20°C° 0.1 mm 1 mps 669 mmHg 63%
    01:00 +20°C° 0.1 mm 1 mps 669 mmHg 65%
    02:00 +17°C° 0.1 mm 0 mps 668 mmHg 66%
    03:00 +17°C° 0.1 mm 0 mps 668 mmHg 67%
    04:00 +18°C° 0.2 mm 0 mps 668 mmHg 65%
    05:00 +20°C° 0.2 mm 1 mps 669 mmHg 62%
    06:00 +21°C° 0.2 mm 1 mps 669 mmHg 59%
    07:00 +21°C° 0.1 mm 2 mps 669 mmHg 55%
    08:00 +24°C° 0.1 mm 3 mps 670 mmHg 50%
    09:00 +25°C° 0.1 mm 3 mps 671 mmHg 46%
    10:00 +26°C° 0 mm 4 mps 670 mmHg 41%
    11:00 +27°C° 0 mm 4 mps 670 mmHg 36%
    12:00 +28°C° 0 mm 5 mps 670 mmHg 31%
    13:00 +29°C° 0 mm 5 mps 670 mmHg 29%
    14:00 +29°C° 0 mm 5 mps 669 mmHg 28%
    15:00 +29°C° 0 mm 5 mps 669 mmHg 26%
    16:00 +28°C° 0 mm 5 mps 669 mmHg 29%
    17:00 +28°C° 0 mm 4 mps 668 mmHg 32%
    18:00 +27°C° 0 mm 4 mps 668 mmHg 35%
    19:00 +26°C° 0 mm 3 mps 668 mmHg 39%
    20:00 +25°C° 0 mm 3 mps 668 mmHg 43%
    21:00 +24°C° 0 mm 2 mps 668 mmHg 47%
    22:00 +23°C° 0 mm 2 mps 667 mmHg 48%
    23:00 +23°C° 0 mm 2 mps 667 mmHg 49%

    Day after tomorrow, 4 June, Thursday

    Time Temperature Precipitation Wind Pressure Humidity
    00:00 +23°C° 0 mm 2 mps 667 mmHg 51%
    01:00 +21°C° 0 mm 2 mps 667 mmHg 51%
    02:00 +21°C° 0 mm 2 mps 666 mmHg 52%
    03:00 +21°C° 0 mm 3 mps 666 mmHg 53%
    04:00 +21°C° 0 mm 3 mps 666 mmHg 52%
    05:00 +23°C° 0 mm 2 mps 667 mmHg 51%
    06:00 +23°C° 0 mm 2 mps 667 mmHg 50%
    07:00 +25°C° 0 mm 3 mps 667 mmHg 44%
    08:00 +27°C° 0 mm 4 mps 668 mmHg 38%
    09:00 +29°C° 0 mm 5 mps 668 mmHg 32%
    10:00 +30°C° 0 mm 6 mps 668 mmHg 30%
    11:00 +32°C° 0 mm 8 mps 668 mmHg 27%
    12:00 +33°C° 0 mm 9 mps 667 mmHg 25%
    13:00 +32°C° 0 mm 9 mps 667 mmHg 25%
    14:00 +32°C° 0 mm 9 mps 667 mmHg 26%
    15:00 +32°C° 0 mm 9 mps 666 mmHg 26%
    16:00 +30°C° 0 mm 7 mps 666 mmHg 27%
    17:00 +30°C° 0 mm 5 mps 666 mmHg 29%
    18:00 +29°C° 0 mm 4 mps 665 mmHg 30%
    19:00 +27°C° 0 mm 3 mps 665 mmHg 36%
    20:00 +24°C° 0 mm 3 mps 666 mmHg 43%
    21:00 +21°C° 0 mm 3 mps 666 mmHg 49%
    22:00 +20°C° 0 mm 2 mps 666 mmHg 52%
    23:00 +20°C° 0 mm 2 mps 666 mmHg 56%

    5 June, Friday

    Time Temperature Precipitation Wind Pressure Humidity
    00:00 +19°C° 0 mm 2 mps 666 mmHg 59%
    01:00 +18°C° 0 mm 2 mps 666 mmHg 61%
    02:00 +18°C° 0 mm 2 mps 665 mmHg 62%
    03:00 +17°C° 0 mm 2 mps 665 mmHg 64%
    04:00 +18°C° 0 mm 2 mps 666 mmHg 61%
    05:00 +18°C° 0 mm 3 mps 666 mmHg 58%
    06:00 +19°C° 0 mm 3 mps 667 mmHg 54%
    07:00 +20°C° 0 mm 5 mps 667 mmHg 48%
    08:00 +21°C° 0 mm 6 mps 668 mmHg 42%
    09:00 +22°C° 0 mm 8 mps 669 mmHg 35%
    10:00 +23°C° 0 mm 8 mps 669 mmHg 33%
    11:00 +24°C° 0 mm 7 mps 670 mmHg 30%
    12:00 +26°C° 0 mm 7 mps 670 mmHg 27%
    13:00 +26°C° 0 mm 7 mps 670 mmHg 26%
    14:00 +27°C° 0 mm 6 mps 670 mmHg 25%
    15:00 +27°C° 0 mm 6 mps 670 mmHg 24%
    16:00 +26°C° 0 mm 5 mps 670 mmHg 26%
    17:00 +25°C° 0 mm 5 mps 670 mmHg 28%
    18:00 +25°C° 0 mm 4 mps 670 mmHg 30%
    19:00 +22°C° 0 mm 3 mps 670 mmHg 35%
    20:00 +21°C° 0 mm 2 mps 671 mmHg 41%
    21:00 +21°C° 0 mm 1 mps 671 mmHg 46%
    22:00 +20°C° 0 mm 1 mps 671 mmHg 47%
    23:00 +20°C° 0 mm 1 mps 670 mmHg 48%

    6 June, Saturday

    Time Temperature Precipitation Wind Pressure Humidity
    00:00 +20°C° 0 mm 1 mps 670 mmHg 49%
    01:00 +19°C° 0 mm 1 mps 670 mmHg 50%
    02:00 +19°C° 0 mm 1 mps 670 mmHg 51%
    03:00 +19°C° 0 mm 1 mps 670 mmHg 53%
    04:00 +20°C° 0 mm 1 mps 670 mmHg 49%
    05:00 +21°C° 0 mm 1 mps 671 mmHg 46%
    06:00 +21°C° 0 mm 2 mps 671 mmHg 43%
    07:00 +24°C° 0 mm 2 mps 672 mmHg 40%
    08:00 +25°C° 0 mm 3 mps 672 mmHg 36%
    09:00 +26°C° 0 mm 3 mps 673 mmHg 32%
    10:00 +27°C° 0 mm 4 mps 673 mmHg 31%
    11:00 +28°C° 0 mm 5 mps 673 mmHg 30%
    12:00 +29°C° 0 mm 6 mps 673 mmHg 28%
    13:00 +29°C° 0 mm 6 mps 672 mmHg 28%
    14:00 +29°C° 0 mm 6 mps 672 mmHg 28%
    15:00 +29°C° 0 mm 6 mps 672 mmHg 28%
    16:00 +29°C° 0 mm 5 mps 671 mmHg 30%
    17:00 +28°C° 0 mm 3 mps 671 mmHg 32%
    18:00 +27°C° 0 mm 2 mps 670 mmHg 34%
    19:00 +27°C° 0 mm 2 mps 670 mmHg 35%
    20:00 +26°C° 0 mm 2 mps 670 mmHg 36%
    21:00 +25°C° 0 mm 2 mps 670 mmHg 37%
    22:00 +25°C° 0 mm 4 mps 670 mmHg 35%
    23:00 +25°C° 0 mm 5 mps 669 mmHg 32%

    7 June, Sunday

    Time Temperature Precipitation Wind Pressure Humidity
    00:00 +26°C° 0 mm 6 mps 669 mmHg 30%
    01:00 +24°C° 0 mm 7 mps 669 mmHg 31%
    02:00 +24°C° 0 mm 7 mps 669 mmHg 31%
    03:00 +24°C° 0 mm 8 mps 668 mmHg 32%
    04:00 +24°C° 0 mm 6 mps 669 mmHg 32%
    05:00 +25°C° 0 mm 5 mps 669 mmHg 32%
    06:00 +26°C° 0 mm 4 mps 669 mmHg 32%
    07:00 +27°C° 0 mm 3 mps 670 mmHg 30%
    08:00 +28°C° 0 mm 3 mps 670 mmHg 28%
    09:00 +29°C° 0 mm 2 mps 671 mmHg 26%
    10:00 +30°C° 0 mm 3 mps 671 mmHg 25%
    11:00 +31°C° 0 mm 3 mps 671 mmHg 24%
    12:00 +33°C° 0 mm 3 mps 671 mmHg 24%
    13:00 +32°C° 0 mm 4 mps 671 mmHg 24%
    14:00 +32°C° 0 mm 5 mps 670 mmHg 24%
    15:00 +32°C° 0 mm 5 mps 670 mmHg 24%
    16:00 +30°C° 0 mm 5 mps 670 mmHg 28%
    17:00 +29°C° 0 mm 5 mps 670 mmHg 32%
    18:00 +27°C° 0 mm 5 mps 670 mmHg 36%
    19:00 +25°C° 0 mm 5 mps 670 mmHg 42%
    20:00 +22°C° 0 mm 5 mps 670 mmHg 49%
    21:00 +20°C° 0 mm 5 mps 670 mmHg 56%
    22:00 +20°C° 0 mm 4 mps 670 mmHg 57%
    23:00 +19°C° 0 mm 4 mps 670 mmHg 59%
    Show more